Pontiac, MI

5:55 AM EDT on May 26, 2017 (GMT -0400)
Oakland County International

Weather History for KPTK - August, 2013

Change the Weather History Date:

Tuesday, August 6, 2013

  Actual Average Record
Temperature  
Mean Temperature 70 °F -  
Max Temperature 77 °F 78 °F 93 °F (1996)
Min Temperature 63 °F 59 °F 51 °F (1997)
Cooling Degree Days 5    
Growing Degree Days 20 (Base 50)    
Moisture  
Dew Point 62 °F    
Average Humidity 79    
Maximum Humidity 93    
Minimum Humidity 60    
Precipitation  
Precipitation 0.13 in - - ()
Sea Level Pressure  
Sea Level Pressure 29.93 in    
Wind  
Wind Speed 6 mph (South)    
Max Wind Speed 12 mph    
Max Gust Speed 16 mph    
Visibility 8 miles    
Events Rain    
Averages and records for this station are not official NWS values.
T = Trace of Precipitation, MM = Missing Value Source: NWS Daily Summary

Daily Weather History Graph

Daily Weather History Graph

Search for Another Location

Airport or City:

Trip Planner

Search our weather history database for the weather conditions in past years. The results will help you decide how hot, cold, wet, or windy it might be!

Date:

Astronomy

Aug. 06, 2013 Rise Set
Actual Time 6:30 AM EDT 8:47 PM EDT
Civil Twilight 5:59 AM EDT 9:18 PM EDT
Nautical Twilight 5:20 AM EDT 9:57 PM EDT
Astronomical Twilight 4:37 AM EDT 10:40 PM EDT
Moon 6:22 AM EDT (8/6) 8:19 PM EDT (8/6)
Length of Visible Light 15h 19m
Length of Day
14h 16m
Waning Crescent, 0% of the Moon is Illuminated
Aug 6
Waning Crescent
Aug 6
New
Aug 14
First Quarter
Aug 20
Full
Aug 28
Last Quarter

Hourly Weather History & Observations

Time (EDT) Temp. Dew Point Humidity Pressure Visibility Wind Dir Wind Speed Gust Speed Precip Events Conditions
4:53 AM 64.9 °F 60.1 °F 84% 29.95 in 10.0 mi SSE 4.6 mph - N/A   Overcast
5:53 AM 64.0 °F 59.0 °F 84% 29.94 in 10.0 mi South 5.8 mph - N/A   Overcast
6:53 AM 63.0 °F 60.1 °F 90% 29.94 in 6.0 mi South 5.8 mph - 0.02 in   Overcast
7:53 AM 63.0 °F 61.0 °F 93% 29.95 in 7.0 mi South 5.8 mph - N/A   Overcast
8:53 AM 66.0 °F 61.0 °F 84% 29.95 in 8.0 mi SSE 5.8 mph - N/A   Mostly Cloudy
9:53 AM 66.9 °F 61.0 °F 81% 29.95 in 10.0 mi South 8.1 mph - 0.00 in   Overcast
10:53 AM 69.1 °F 61.0 °F 75% 29.95 in 10.0 mi South 11.5 mph 16.1 mph 0.00 in   Overcast
11:40 AM 66.2 °F 60.8 °F 83% 29.96 in 2.5 mi South 6.9 mph - 0.04 in Rain Light Rain
11:53 AM 66.0 °F 61.0 °F 84% 29.95 in 4.0 mi South 3.5 mph - 0.05 in Rain Light Rain
12:53 PM 68.0 °F 61.0 °F 78% 29.94 in 10.0 mi South 6.9 mph - 0.01 in   Overcast
1:53 PM 70.0 °F 61.0 °F 73% 29.94 in 10.0 mi South 10.4 mph - N/A   Overcast
2:53 PM 75.0 °F 62.1 °F 64% 29.93 in 10.0 mi South 9.2 mph - N/A   Mostly Cloudy
3:53 PM 75.0 °F 62.1 °F 64% 29.91 in 10.0 mi SSE 10.4 mph - N/A   Mostly Cloudy
4:53 PM 77.0 °F 62.1 °F 60% 29.90 in 10.0 mi South 11.5 mph - N/A   Mostly Cloudy
5:53 PM 75.0 °F 63.0 °F 66% 29.90 in 10.0 mi South 9.2 mph - N/A   Mostly Cloudy
6:33 PM 73.4 °F 64.4 °F 73% 29.91 in 2.5 mi South 8.1 mph - 0.04 in Rain Heavy Rain
6:40 PM 71.6 °F 64.4 °F 78% 29.91 in 4.0 mi South 9.2 mph - 0.04 in Rain Light Rain
6:53 PM 71.1 °F 64.9 °F 81% 29.91 in 6.0 mi South 5.8 mph - 0.05 in Rain Light Rain
7:53 PM 71.1 °F 66.0 °F 84% 29.91 in 10.0 mi South 4.6 mph - 0.00 in   Overcast
8:53 PM 70.0 °F 64.9 °F 84% 29.91 in 10.0 mi SSE 3.5 mph - N/A   Scattered Clouds
9:53 PM 69.1 °F 64.0 °F 84% 29.90 in 10.0 mi Calm Calm - N/A   Scattered Clouds
10:53 PM 69.1 °F 64.0 °F 84% 29.90 in 10.0 mi SSE 3.5 mph - N/A   Mostly Cloudy
11:53 PM 68.0 °F 64.0 °F 87% 29.90 in 10.0 mi South 4.6 mph - N/A   Scattered Clouds